Regional Weather Roundup
Issued by NWS

Home | Current Version | Previous Version | Text Only | Print | Product List | Glossary Off
Versions: 1 2 3 4 5 6 7 8 9 10 11 12 13 14 15 16 17 18 19 20 21 22 23 24 25 26 27 28 29 30 31 32 33 34 35 36 37 38 39 40 41 42 43 44 45 46 47 48 49 50

000
ASUS43 KLMK 310302
RWRKY
KENTUCKY REGIONAL WEATHER ROUNDUP
NATIONAL WEATHER SERVICE LOUISVILLE KY
1100 PM EDT SUN AUG 30 2015

NOTE "FAIR" INDICATES FEW OR NO CLOUDS BELOW 12,000 FEET
WITH NO SIGNIFICANT WEATHER AND/OR OBSTRUCTIONS TO VISIBILITY.

KYZ001>023-026-027-061>063-070>075-310400-
WESTERN AND SOUTH CENTRAL KENTUCKY

CITY           SKY/WX    TMP DP  RH WIND       PRES   REMARKS
PADUCAH        PTCLDY    71  67  87 S5        30.04S
HENDERSON      PTCLDY    70  66  88 S6        30.05S
OWENSBORO      LGT RAIN  73  71  93 CALM      30.07F
HOPKINSVILLE   MOCLDY    72  70  94 SE3       30.08R
BOWLING GREEN  MOCLDY    71  65  81 CALM      30.09S
GLASGOW        NOT AVBL
$$

KYZ024-025-028>034-038-045-046-053-310400-
NORTH CENTRAL KENTUCKY

CITY           SKY/WX    TMP DP  RH WIND       PRES   REMARKS
LOUISVILLE/SDF PTCLDY    76  68  76 S6        30.08S
LOUISVILLE/LOU PTCLDY    75  69  81 CALM      30.09S
FORT KNOX      MOCLDY    72  67  84 S3        30.08S
$$

KYZ035>037-039>044-047>052-055>060-089>105-310400-
NORTHEAST KENTUCKY

CITY           SKY/WX    TMP DP  RH WIND       PRES   REMARKS
LEXINGTON      CLOUDY    72  68  87 S3        30.11S
COVINGTON      MOCLDY    73  68  84 S5        30.09S
FRANKFORT      MOCLDY    72  68  87 CALM      30.10R
$$

KYZ054-064>069-076>088-106>120-310400-
SOUTHEAST KENTUCKY

CITY           SKY/WX    TMP DP  RH WIND       PRES   REMARKS
JACKSON        CLOUDY    72  66  81 CALM      30.14S
LONDON         CLOUDY    72  65  78 CALM      30.13F
SOMERSET       NOT AVBL
MIDDLESBORO    CLOUDY    69  68  98 CALM      30.14F
MONTICELLO     MOCLDY    68  68 100 CALM      30.15S
$$



USA.gov is the U.S. government's official web portal to all federal, state and local government web resources and services.